User: anonymous   Login
Location: Heidgraben
(53.7081°N, 9.6576°E)
Time: 13:11:28
(UTC+00:00)
Language:

COSMOS 2455 - Orbit

View from above orbital plane
View from above orbital plane
View from above satellite
View from above satellite

Ground track
Ground track

The orbit data is extracted from the following two-line orbital elements,

1 36095U 09063A   20272.09313907 -.00000045  00000-0  21966-4 0  9994
2 36095  67.1466 289.6399 0009116 266.2406  93.7636 13.96770773553685
Epoch (UTC): 28 September 2020 02:14:07
Eccentricity: 0.0009116
inclination: 67.1466°
perigee height: 898 km
apogee height: 911 km
right ascension of ascending node: 289.6399°
argument of perigee: 266.2406°
revolutions per day: 13.96770773
mean anomaly at epoch: 93.7636°
orbit number at epoch: 55368

The dashed part of the orbit path shows where the satellite is in the earth's shadow,  

DLR